Regional Weather Roundup
Issued by NWS

Home | Current Version | Previous Version | Graphics & Text | Print | Product List | Glossary On
Versions: 1 2 3 4 5 6 7 8 9 10 11 12 13 14 15 16 17 18 19 20 21 22 23 24 25 26 27 28 29 30 31 32 33 34 35 36 37 38 39 40 41 42 43 44 45 46 47 48 49 50
378
ASUS43 KDMX 260401
RWRIA

WEATHER ROUNDUP FOR IOWA
NATIONAL WEATHER SERVICE DES MOINES IA
1100 PM CDT MON SEP 25 2017

NOTE: "FAIR" INDICATES FEW OR NO CLOUDS BELOW 12,000 FEET WITH NO
SIGNIFICANT WEATHER AND/OR OBSTRUCTIONS TO VISIBILITY.

* - THESE STATIONS ARE NOT NWS STATIONS...THUS NOT UNDER NWS
QUALITY CONTROL.  THEY ALSO DO NOT REPORT WEATHER SUCH
AS PRECIPITATION OR FOG.

IAZ001>003-012>014-020>022-031>034-043>046-260500-
   NORTHWEST IOWA

CITY           SKY/WX    TMP DP  RH WIND       PRES   REMARKS
CARROLL *      CLOUDY    63  63 100 N7        29.95S FOG
CHEROKEE *     LGT RAIN  57  57 100 N3        29.97F
DENISON *      CLOUDY    59  59 100 N8        29.96F
LE MARS *      CLOUDY    57  55  94 CALM      29.98S
ORANGE CITY *  DRIZZLE   57  57 100 NE3       29.97F
SHELDON *      DRIZZLE   55  55 100 NE8       29.96F
SIOUX CITY     LGT RAIN  56  56 100 NW7       29.98F
SPENCER        LGT RAIN  58  56  93 N6        29.98S
STORM LAKE *   LGT RAIN  57  57 100 N8        29.97S
$$

IAZ055>058-069>071-079>083-090>094-260500-
   SOUTHWEST IOWA

CITY           SKY/WX    TMP DP  RH WIND       PRES   REMARKS
ATLANTIC *     RAIN      66  66 100 CALM      29.94S
AUDUBON *      RAIN      63  61  94 N3        29.96S
CLARINDA *     CLOUDY    66  66 100 CALM      29.98S
COUNCIL BLFS * CLOUDY    59  59 100 NW5       29.96R FOG
CRESTON *      CLOUDY    66  66 100 CALM      29.97R FOG
HARLAN  *      DRIZZLE   63  63 100 NE6       29.98R
LAMONI         PTCLDY    66  65  96 E6        29.93S
RED OAK *      LGT RAIN  66  66 100 CALM      29.96S
SHENANDOAH *   DRIZZLE   66  64  94 CALM      29.96S
$$

IAZ047>049-059>061-072>074-084-260500-
   CENTRAL IOWA

CITY           SKY/WX    TMP DP  RH WIND       PRES   REMARKS
AMES           MOCLDY    65  65 100 CALM      29.92R
ANKENY *       MOCLDY    64  64 100 CALM      29.93R
BOONE *        CLOUDY    66  66 100 CALM      29.93R FOG
CHARITON *     CLEAR     66  64  94 E7        29.93F
DES MOINES     CLOUDY    67  66  97 E6        29.92R
GRINNELL*      MOCLDY    66  63  89 E6        29.96R
KNOXVILLE *    PTCLDY    66  64  94 E6        29.92S
MARSHALLTOWN   CLOUDY    66  65  96 E7        29.91F
NEWTON *       PTCLDY    64  64 100 E7        29.94R
PELLA *        CLOUDY    67  63  89 E3        29.94S
PERRY *        CLOUDY    66  66  99 CALM      29.94S FOG
$$

IAZ004>006-015-016-023>025-035-036-260500-
   NORTH CENTRAL IOWA

CITY           SKY/WX    TMP DP  RH WIND       PRES   REMARKS
ALGONA *       DRIZZLE   59  59 100 N8G14     29.95F
CLARION *      CLOUDY    64  64 100 CALM      29.94R
ESTHERVILLE    LGT RAIN  56  56 100 N6        29.95F
FORT DODGE *   CLOUDY    61  60  97 NW7       29.96R
MASON CITY     LGT RAIN  64  63  96 N6        29.94F FOG
FOREST CITY *  RAIN      63  63 100 N6        29.94F
WEBSTER CITY * CLOUDY    64  64 100 W3        29.93R
IOWA FALLS *   MOCLDY    65  65  97 E8        29.93F
$$

IAZ007>011-017>019-026>030-037>042-050>054-066-260500-
   NORTHEAST IOWA

CITY           SKY/WX    TMP DP  RH WIND       PRES   REMARKS
CEDAR RAPIDS   LGT RAIN  69  68  96 N9        29.95R
CHARLES CITY * CLOUDY    64  64 100 S3        29.96F
CLINTON *      CLOUDY   N/A N/A N/A CALM      29.92S
DECORAH *        N/A     64  64 100 CALM      29.95R
DUBUQUE        PTCLDY    68  65  90 N10       29.96R
MONTICELLO *   CLOUDY    68  66  94 N7        29.93F
OELWEIN *      LGT RAIN  66  66 100 E8        29.97S
WATERLOO       CLOUDY    65  64  97 SE7       29.95F
$$

IAZ064-065-067-068-078-260500-
   EAST CENTRAL IOWA

CITY           SKY/WX    TMP DP  RH WIND       PRES   REMARKS
DAVENPORT      CLOUDY    73  65  75 S3        29.93S
IOWA CITY      MOCLDY    73  67  81 NW8       29.95R
MUSCATINE *    CLOUDY    73  66  78 NW7       29.92R
QUAD CITIES    CLOUDY    72  67  84 CALM      29.90S
$$

IAZ062-063-075>077-085>089-095>099-260500-
   SOUTHEAST IOWA

CITY           SKY/WX    TMP DP  RH WIND       PRES   REMARKS
BURLINGTON     CLEAR     72  65  78 S5        29.92R
FAIRFIELD *    MOCLDY    72  64  78 NW9       29.94R
FORT MADISON * PTCLDY    72  66  83 S3        29.93S
KEOKUK *       MOCLDY    73  64  73 CALM      29.91S
OSKALOOSA *    HVY RAIN  67  64  91 SE8       29.97R
OTTUMWA        LGT RAIN  70  65  84 N7        29.95S
WASHINGTON *   CLOUDY    72  68  88 N8G15     29.95R
$$

ABBREVIATIONS USED IN REMARKS
   TC - TEMPERATURES IN CELSIUS
  WCI - WIND CHILL INDEX
   HX - HEAT INDEX
  VSB - VISIBILITY
$$





USA.gov is the U.S. government's official web portal to all federal, state and local government web resources and services.